ENDUROSAT ONE (43551 NORAD) Tracking and Keplerian Element Data

This shows tracking and keplerian element data for the satellite.

Feedback or suggestion? Click here.




ElementValue
Catalog43551
NameENDUROSAT ONE
Epoch Orbit1959
Epoch Day320.20171111
Epoch Year2018
RAAN339.3184
Inclination51.6396
Eccentricity0.0007249
Argument of Perigee59.6787
Mean Anonmoly300.4921
Mean Motion15.57250772
Decay Rate0.00010386
L11 43551U 98067NZ 18320.20171111 .00010386 00000-0 14624-3 0 9994
L22 43551 51.6396 339.3184 0007249 59.6787 300.4921 15.57250772 19599

Live tracking and technical data element details for ENDUROSAT ONE (NORAD 43551). ENDUROSAT ONE can be tracked NOW for your location showing map with azimuth and elevation plus other details from your city location.

Track the satellite on the map from your city or location and see movement details for azimuth, elevation, latitude, longitude, range, height, and movement on the map or in text.







IsCatalogInMostPopularTable: catalog: 43551, numindb: 54
Update: records affected: 1



GetName: 43551 ENDUROSAT ONE

Hit Count: updated at: Sat, 17 Nov 2018 02:09:53 GMT